ARG7620 SKBO-SKSP

Flight info

Callsign ARG7620
Flight time 1h 46m
Altitude FL360
Route ABL3A ABL MQU RNG UN653 TOSAV TOSA2A
Aircraft A321/M-SDE3FGHIRWY/LB1

Departure

Time 2026-05-08 19:57
Airport El Dorado International Airport (SKBO)

Arrival

Time 2026-05-08 21:43
Airport Gustavo Rojas Pinilla International Airport (SKSP)
Time Latitude Longitude Altitude Speed Heading
2026-05-08 19:22 4.69992 -74.14332 8366 ft 0 kts 37°
2026-05-08 19:40 4.69989 -74.14334 8366 ft 3 kts 38°
2026-05-08 19:41 4.69974 -74.14353 8366 ft 4 kts 54°
2026-05-08 19:41 4.69957 -74.14369 8366 ft 4 kts 24°
2026-05-08 19:41 4.69936 -74.14371 8366 ft 5 kts 319°
2026-05-08 19:41 4.69921 -74.14350 8366 ft 4 kts 299°
2026-05-08 19:42 4.69916 -74.14341 8366 ft 3 kts 307°
2026-05-08 19:42 4.69931 -74.14362 8366 ft 3 kts 307°
2026-05-08 19:42 4.69934 -74.14365 8366 ft 0 kts 307°
2026-05-08 19:46 4.69935 -74.14367 8366 ft 1 kts 305°
2026-05-08 19:46 4.69982 -74.14436 8366 ft 9 kts 307°
2026-05-08 19:47 4.70019 -74.14485 8365 ft 9 kts 307°
2026-05-08 19:47 4.70055 -74.14531 8366 ft 8 kts 308°
2026-05-08 19:47 4.70091 -74.14558 8366 ft 5 kts 345°
2026-05-08 19:47 4.70125 -74.14570 8366 ft 5 kts 332°
2026-05-08 19:48 4.70158 -74.14591 8366 ft 7 kts 345°
2026-05-08 19:48 4.70209 -74.14561 8366 ft 11 kts 33°
2026-05-08 19:48 4.70284 -74.14509 8366 ft 15 kts 36°
2026-05-08 19:48 4.70374 -74.14442 8366 ft 17 kts 37°
2026-05-08 19:49 4.70470 -74.14409 8366 ft 15 kts 330°
2026-05-08 19:49 4.70543 -74.14497 8366 ft 18 kts 306°
2026-05-08 19:49 4.70623 -74.14601 8367 ft 20 kts 307°
2026-05-08 19:49 4.70715 -74.14719 8367 ft 23 kts 309°
2026-05-08 19:50 4.70816 -74.14850 8367 ft 25 kts 307°
2026-05-08 19:50 4.70918 -74.14982 8367 ft 23 kts 306°
2026-05-08 19:50 4.71012 -74.15108 8366 ft 22 kts 307°
2026-05-08 19:50 4.71100 -74.15223 8367 ft 20 kts 309°
2026-05-08 19:51 4.71187 -74.15297 8366 ft 14 kts 346°
2026-05-08 19:51 4.71235 -74.15285 8367 ft 0 kts 37°
2026-05-08 19:54 4.71249 -74.15273 8367 ft 5 kts 41°
2026-05-08 19:54 4.71283 -74.15240 8366 ft 9 kts 44°
2026-05-08 19:54 4.71310 -74.15178 8366 ft 12 kts 98°
2026-05-08 19:55 4.71286 -74.15138 8366 ft 0 kts 127°
2026-05-08 19:56 4.71203 -74.15026 8365 ft 49 kts 126°
2026-05-08 19:56 4.70898 -74.14623 8366 ft 100 kts 127°
2026-05-08 19:57 4.70416 -74.13984 8365 ft 142 kts 126°
2026-05-08 19:57 4.69808 -74.13210 8644 ft 155 kts 130°
2026-05-08 19:57 4.69066 -74.12545 9196 ft 155 kts 139°
2026-05-08 19:57 4.68180 -74.11854 9232 ft 194 kts 154°
2026-05-08 19:58 4.66827 -74.11690 9233 ft 234 kts 187°
2026-05-08 19:58 4.65327 -74.12386 9213 ft 270 kts 217°
2026-05-08 19:58 4.64185 -74.13855 9173 ft 297 kts 243°
2026-05-08 19:58 4.63730 -74.15905 9297 ft 312 kts 268°
2026-05-08 19:59 4.63945 -74.17996 9665 ft 313 kts 276°
2026-05-08 19:59 4.63874 -74.20098 10018 ft 313 kts 261°
2026-05-08 19:59 4.63378 -74.22119 10490 ft 309 kts 251°
2026-05-08 19:59 4.62610 -74.24072 10923 ft 322 kts 248°
2026-05-08 20:00 4.62194 -74.26237 11374 ft 340 kts 267°
2026-05-08 20:00 4.62294 -74.28551 11823 ft 354 kts 276°
2026-05-08 20:00 4.62638 -74.30870 12273 ft 367 kts 280°
2026-05-08 20:00 4.63164 -74.33420 12743 ft 391 kts 283°
2026-05-08 20:01 4.63764 -74.35987 13209 ft 413 kts 284°
2026-05-08 20:01 4.64540 -74.38728 13698 ft 434 kts 289°
2026-05-08 20:01 4.65522 -74.41510 14147 ft 455 kts 290°
2026-05-08 20:01 4.66584 -74.44444 14577 ft 473 kts 290°
2026-05-08 20:02 4.67684 -74.47436 14956 ft 492 kts 290°
2026-05-08 20:02 4.68811 -74.50484 15308 ft 509 kts 290°
2026-05-08 20:02 4.69932 -74.53517 15681 ft 525 kts 290°
2026-05-08 20:02 4.71158 -74.56843 16086 ft 540 kts 290°
2026-05-08 20:03 4.72344 -74.60071 16473 ft 552 kts 290°
2026-05-08 20:03 4.73592 -74.63473 16883 ft 552 kts 290°
2026-05-08 20:03 4.74856 -74.66926 17308 ft 551 kts 290°
2026-05-08 20:03 4.76130 -74.70424 17745 ft 549 kts 290°
2026-05-08 20:04 4.77359 -74.73769 18163 ft 548 kts 291°
2026-05-08 20:04 4.79173 -74.77047 18544 ft 547 kts 306°
2026-05-08 20:04 4.81644 -74.79710 18923 ft 541 kts 320°
2026-05-08 20:04 4.84541 -74.81612 19306 ft 518 kts 334°
2026-05-08 20:05 4.87659 -74.82729 19694 ft 476 kts 345°
2026-05-08 20:05 4.90622 -74.83439 20076 ft 441 kts 348°
2026-05-08 20:05 4.93483 -74.84045 20478 ft 439 kts 348°
2026-05-08 20:05 4.96364 -74.84660 20882 ft 447 kts 348°
2026-05-08 20:06 4.99245 -74.85328 21285 ft 452 kts 346°
2026-05-08 20:06 5.02103 -74.86058 21679 ft 454 kts 345°
2026-05-08 20:06 5.05106 -74.86897 22102 ft 457 kts 344°
2026-05-08 20:06 5.07921 -74.87743 22504 ft 461 kts 343°
2026-05-08 20:07 5.10650 -74.88612 22906 ft 464 kts 342°
2026-05-08 20:07 5.13585 -74.89593 23352 ft 467 kts 341°
2026-05-08 20:07 5.16413 -74.90576 23722 ft 470 kts 340°
2026-05-08 20:07 5.19197 -74.91808 24083 ft 473 kts 332°
2026-05-08 20:08 5.21851 -74.93267 24442 ft 476 kts 330°
2026-05-08 20:08 5.24526 -74.94847 24813 ft 480 kts 328°
2026-05-08 20:08 5.27117 -74.96428 25196 ft 482 kts 328°
2026-05-08 20:08 5.29765 -74.98072 25596 ft 486 kts 327°
2026-05-08 20:09 5.32491 -74.99784 26011 ft 489 kts 327°
2026-05-08 20:09 5.35261 -75.01534 26433 ft 492 kts 327°
2026-05-08 20:09 5.37876 -75.03194 26840 ft 491 kts 327°
2026-05-08 20:09 5.40729 -75.05011 27295 ft 488 kts 327°
2026-05-08 20:10 5.43450 -75.06748 27728 ft 487 kts 327°
2026-05-08 20:10 5.46108 -75.08445 28167 ft 486 kts 327°
2026-05-08 20:10 5.48766 -75.10147 28610 ft 486 kts 326°
2026-05-08 20:10 5.51361 -75.11810 29042 ft 484 kts 327°
2026-05-08 20:11 5.54053 -75.13535 29491 ft 483 kts 327°
2026-05-08 20:11 5.56753 -75.15266 29941 ft 482 kts 327°
2026-05-08 20:11 5.59483 -75.17017 30362 ft 482 kts 327°
2026-05-08 20:11 5.62183 -75.18749 30755 ft 480 kts 327°
2026-05-08 20:12 5.64854 -75.20462 31151 ft 476 kts 327°
2026-05-08 20:12 5.67420 -75.22108 31542 ft 473 kts 327°
2026-05-08 20:12 5.69972 -75.23745 31936 ft 471 kts 326°
2026-05-08 20:12 5.72533 -75.25389 32339 ft 468 kts 326°
2026-05-08 20:13 5.75130 -75.27057 32760 ft 465 kts 327°
2026-05-08 20:13 5.77624 -75.28660 33174 ft 462 kts 326°
2026-05-08 20:13 5.80142 -75.30279 33597 ft 460 kts 326°
2026-05-08 20:13 5.82610 -75.31866 34017 ft 458 kts 326°
2026-05-08 20:14 5.85047 -75.33433 34413 ft 457 kts 326°
2026-05-08 20:14 5.87552 -75.35043 34823 ft 456 kts 326°
2026-05-08 20:14 5.90017 -75.36626 35239 ft 456 kts 326°
2026-05-08 20:14 5.92466 -75.38202 35522 ft 458 kts 326°
2026-05-08 20:15 5.95051 -75.39886 35701 ft 461 kts 322°
2026-05-08 20:15 5.97234 -75.41866 35801 ft 458 kts 310°
2026-05-08 20:15 6.00890 -75.46481 35850 ft 453 kts 306°
2026-05-08 20:16 6.04317 -75.51216 35868 ft 451 kts 304°
2026-05-08 20:16 6.07678 -75.55990 35749 ft 453 kts 304°
2026-05-08 20:17 6.11128 -75.60953 35774 ft 454 kts 303°
2026-05-08 20:17 6.14599 -75.65976 35771 ft 453 kts 303°
2026-05-08 20:18 6.18052 -75.70990 35763 ft 454 kts 303°
2026-05-08 20:18 6.21519 -75.76038 35731 ft 455 kts 303°
2026-05-08 20:19 6.24986 -75.81090 35719 ft 456 kts 303°
2026-05-08 20:19 6.28354 -75.86003 35692 ft 456 kts 303°
2026-05-08 20:20 6.31661 -75.90831 35667 ft 457 kts 303°
2026-05-08 20:20 6.35177 -75.95965 35655 ft 457 kts 303°
2026-05-08 20:21 6.38566 -76.00917 35656 ft 456 kts 303°
2026-05-08 20:21 6.42009 -76.05949 35657 ft 456 kts 303°
2026-05-08 20:22 6.45449 -76.10983 35659 ft 456 kts 303°
2026-05-08 20:22 6.48864 -76.15987 35657 ft 457 kts 303°
2026-05-08 20:23 6.52425 -76.20938 35663 ft 457 kts 310°
2026-05-08 20:23 6.56668 -76.25455 35654 ft 458 kts 314°
2026-05-08 20:24 6.61033 -76.29810 35649 ft 458 kts 315°
2026-05-08 20:24 6.65402 -76.34091 35633 ft 458 kts 315°
2026-05-08 20:25 6.69732 -76.38305 35624 ft 460 kts 315°
2026-05-08 20:25 6.74035 -76.42503 35677 ft 459 kts 315°
2026-05-08 20:26 6.78380 -76.46725 35718 ft 460 kts 315°
2026-05-08 20:26 6.82790 -76.51000 35754 ft 461 kts 315°
2026-05-08 20:27 6.87148 -76.55224 35791 ft 461 kts 315°
2026-05-08 20:27 6.91468 -76.59412 35829 ft 461 kts 315°
2026-05-08 20:28 6.95827 -76.63637 35867 ft 462 kts 315°
2026-05-08 20:28 7.00275 -76.67947 35910 ft 462 kts 315°
2026-05-08 20:29 7.04743 -76.72283 35950 ft 460 kts 315°
2026-05-08 20:29 7.09183 -76.76595 35994 ft 460 kts 315°
2026-05-08 20:30 7.13622 -76.80907 36034 ft 461 kts 315°
2026-05-08 20:30 7.18063 -76.85221 36076 ft 460 kts 315°
2026-05-08 20:31 7.22490 -76.89520 36122 ft 459 kts 315°
2026-05-08 20:31 7.26933 -76.93835 36163 ft 460 kts 315°
2026-05-08 20:32 7.31316 -76.98094 36211 ft 461 kts 315°
2026-05-08 20:32 7.35805 -77.02457 36243 ft 461 kts 315°
2026-05-08 20:33 7.40257 -77.06784 36299 ft 460 kts 315°
2026-05-08 20:33 7.44681 -77.11086 36350 ft 461 kts 315°
2026-05-08 20:34 7.49103 -77.15387 36400 ft 460 kts 315°
2026-05-08 20:35 7.55705 -77.21813 36473 ft 458 kts 315°
2026-05-08 20:35 7.60126 -77.26118 36516 ft 459 kts 315°
2026-05-08 20:36 7.64523 -77.30405 36572 ft 459 kts 315°
2026-05-08 20:36 7.68919 -77.34692 36625 ft 457 kts 315°
2026-05-08 20:37 7.73224 -77.39037 36683 ft 458 kts 313°
2026-05-08 20:37 7.77391 -77.43535 36743 ft 459 kts 311°
2026-05-08 20:38 7.81535 -77.48099 36788 ft 458 kts 311°
2026-05-08 20:38 7.85660 -77.52663 36835 ft 458 kts 311°
2026-05-08 20:39 7.89784 -77.57239 36885 ft 459 kts 311°
2026-05-08 20:39 7.93924 -77.61840 36931 ft 460 kts 311°
2026-05-08 20:40 7.98026 -77.66401 36983 ft 459 kts 311°
2026-05-08 20:40 8.02137 -77.70974 37026 ft 458 kts 311°
2026-05-08 20:41 8.06245 -77.75545 37071 ft 458 kts 311°
2026-05-08 20:41 8.10373 -77.80139 37119 ft 458 kts 311°
2026-05-08 20:42 8.14478 -77.84711 37165 ft 456 kts 311°
2026-05-08 20:42 8.18569 -77.89264 37211 ft 455 kts 311°
2026-05-08 20:43 8.22643 -77.93799 37260 ft 455 kts 311°
2026-05-08 20:43 8.26604 -77.98207 37296 ft 455 kts 311°
2026-05-08 20:44 8.30683 -78.02751 37355 ft 455 kts 311°
2026-05-08 20:44 8.34718 -78.07252 37406 ft 456 kts 311°
2026-05-08 20:45 8.38807 -78.11750 37458 ft 457 kts 315°
2026-05-08 20:45 8.43340 -78.15910 37512 ft 458 kts 318°
2026-05-08 20:46 8.47877 -78.19817 37559 ft 458 kts 319°
2026-05-08 20:46 8.52631 -78.23848 37594 ft 459 kts 319°
2026-05-08 20:47 8.57316 -78.27799 37659 ft 460 kts 319°
2026-05-08 20:47 8.61960 -78.31711 37714 ft 460 kts 319°
2026-05-08 20:48 8.66739 -78.35734 37769 ft 459 kts 319°
2026-05-08 20:48 8.68967 -78.37609 37601 ft 459 kts 319°
2026-05-08 20:48 8.71295 -78.39571 37175 ft 458 kts 319°
2026-05-08 20:48 8.73528 -78.41454 36521 ft 460 kts 319°
2026-05-08 20:49 8.75878 -78.43437 36196 ft 465 kts 319°
2026-05-08 20:49 8.78216 -78.45411 35988 ft 461 kts 319°
2026-05-08 20:49 8.80410 -78.47263 35897 ft 454 kts 319°
2026-05-08 20:50 8.85036 -78.51158 35840 ft 454 kts 319°
2026-05-08 20:50 8.89636 -78.55035 35823 ft 457 kts 320°
2026-05-08 20:51 8.94276 -78.58943 35822 ft 456 kts 320°
2026-05-08 20:51 8.98875 -78.62816 35819 ft 454 kts 320°
2026-05-08 20:52 9.03539 -78.66747 35823 ft 455 kts 320°
2026-05-08 20:52 9.08075 -78.70569 35823 ft 455 kts 320°
2026-05-08 20:53 9.12731 -78.74496 35821 ft 454 kts 320°
2026-05-08 20:53 9.17393 -78.78430 35822 ft 456 kts 320°
2026-05-08 20:54 9.22047 -78.82358 35825 ft 456 kts 320°
2026-05-08 20:54 9.26730 -78.86312 35829 ft 456 kts 320°
2026-05-08 20:55 9.31330 -78.90198 35829 ft 457 kts 320°
2026-05-08 20:55 9.36042 -78.94179 35829 ft 457 kts 320°
2026-05-08 20:56 9.40794 -78.98196 35832 ft 458 kts 320°
2026-05-08 20:56 9.45506 -79.02180 35834 ft 459 kts 320°
2026-05-08 20:57 9.50205 -79.06155 35834 ft 459 kts 320°
2026-05-08 20:57 9.54893 -79.10122 35836 ft 459 kts 320°
2026-05-08 20:58 9.59606 -79.14110 35835 ft 459 kts 320°
2026-05-08 20:58 9.64324 -79.18104 35836 ft 459 kts 320°
2026-05-08 20:59 9.69024 -79.22084 35835 ft 458 kts 320°
2026-05-08 20:59 9.73737 -79.26076 35836 ft 459 kts 320°
2026-05-08 21:00 9.78442 -79.30064 35834 ft 459 kts 320°
2026-05-08 21:00 9.83136 -79.34045 35834 ft 458 kts 320°
2026-05-08 21:01 9.87820 -79.38019 35836 ft 458 kts 320°
2026-05-08 21:01 9.92522 -79.42010 35836 ft 459 kts 320°
2026-05-08 21:02 9.97222 -79.45998 35838 ft 458 kts 320°
2026-05-08 21:02 10.01918 -79.49986 35836 ft 458 kts 320°
2026-05-08 21:03 10.06615 -79.53976 35836 ft 458 kts 320°
2026-05-08 21:03 10.11302 -79.57958 35838 ft 458 kts 320°
2026-05-08 21:04 10.15986 -79.61941 35839 ft 457 kts 320°
2026-05-08 21:04 10.20671 -79.65928 35841 ft 458 kts 320°
2026-05-08 21:05 10.25356 -79.69914 35841 ft 458 kts 320°
2026-05-08 21:05 10.27679 -79.71892 35838 ft 446 kts 320°
2026-05-08 21:05 10.29890 -79.73775 35836 ft 437 kts 320°
2026-05-08 21:06 10.34416 -79.77631 35846 ft 440 kts 320°
2026-05-08 21:06 10.38953 -79.81499 35847 ft 445 kts 320°
2026-05-08 21:07 10.43500 -79.85376 35845 ft 443 kts 320°
2026-05-08 21:07 10.48011 -79.89225 35845 ft 442 kts 320°
2026-05-08 21:08 10.52558 -79.93107 35849 ft 444 kts 320°
2026-05-08 21:08 10.57093 -79.96980 35849 ft 444 kts 320°
2026-05-08 21:09 10.61606 -80.00837 35852 ft 443 kts 320°
2026-05-08 21:09 10.66092 -80.04672 35851 ft 443 kts 320°
2026-05-08 21:10 10.70667 -80.08586 35852 ft 445 kts 320°
2026-05-08 21:10 10.75193 -80.12460 35851 ft 444 kts 320°
2026-05-08 21:10 10.77481 -80.14419 35464 ft 452 kts 320°
2026-05-08 21:11 10.79787 -80.16396 35013 ft 451 kts 320°
2026-05-08 21:11 10.82080 -80.18362 34587 ft 446 kts 320°
2026-05-08 21:11 10.84357 -80.20314 34170 ft 444 kts 320°
2026-05-08 21:11 10.86604 -80.22240 33757 ft 453 kts 320°
2026-05-08 21:12 10.88929 -80.24236 33269 ft 445 kts 320°
2026-05-08 21:12 10.91186 -80.26174 32802 ft 436 kts 320°
2026-05-08 21:12 10.93390 -80.28069 32359 ft 428 kts 320°
2026-05-08 21:12 10.95542 -80.29920 31952 ft 419 kts 321°
2026-05-08 21:13 10.97665 -80.31747 31513 ft 411 kts 321°
2026-05-08 21:13 10.99701 -80.33500 31136 ft 405 kts 321°
2026-05-08 21:13 11.01809 -80.35311 30747 ft 405 kts 321°
2026-05-08 21:13 11.03894 -80.37099 30373 ft 408 kts 321°
2026-05-08 21:14 11.05972 -80.38882 30009 ft 407 kts 321°
2026-05-08 21:14 11.08049 -80.40666 29577 ft 404 kts 321°
2026-05-08 21:14 11.10069 -80.42400 29168 ft 401 kts 322°
2026-05-08 21:14 11.12148 -80.44186 28737 ft 400 kts 322°
2026-05-08 21:15 11.14194 -80.45947 28315 ft 400 kts 322°
2026-05-08 21:15 11.16226 -80.47695 27901 ft 398 kts 322°
2026-05-08 21:15 11.18260 -80.49443 27493 ft 395 kts 322°
2026-05-08 21:15 11.20229 -80.51135 27105 ft 393 kts 322°
2026-05-08 21:16 11.22274 -80.52893 26727 ft 392 kts 322°
2026-05-08 21:16 11.24278 -80.54617 26355 ft 391 kts 322°
2026-05-08 21:16 11.26251 -80.56316 26004 ft 391 kts 322°
2026-05-08 21:16 11.28238 -80.58026 25643 ft 389 kts 322°
2026-05-08 21:17 11.30164 -80.59685 25300 ft 387 kts 322°
2026-05-08 21:17 11.32169 -80.61413 24955 ft 385 kts 323°
2026-05-08 21:17 11.34124 -80.63097 24608 ft 385 kts 323°
2026-05-08 21:17 11.36075 -80.64778 24269 ft 384 kts 323°
2026-05-08 21:18 11.38027 -80.66461 23933 ft 383 kts 323°
2026-05-08 21:18 11.39955 -80.68122 23607 ft 381 kts 323°
2026-05-08 21:18 11.41901 -80.69800 23241 ft 380 kts 323°
2026-05-08 21:18 11.43814 -80.71445 22849 ft 378 kts 323°
2026-05-08 21:19 11.45718 -80.73081 22464 ft 373 kts 323°
2026-05-08 21:19 11.47602 -80.74700 22105 ft 369 kts 323°
2026-05-08 21:19 11.49474 -80.76309 21747 ft 366 kts 323°
2026-05-08 21:19 11.51338 -80.77911 21398 ft 365 kts 323°
2026-05-08 21:20 11.53175 -80.79490 21057 ft 363 kts 323°
2026-05-08 21:20 11.55014 -80.81073 20715 ft 359 kts 323°
2026-05-08 21:20 11.56835 -80.82642 20373 ft 356 kts 323°
2026-05-08 21:20 11.58625 -80.84185 20055 ft 352 kts 322°
2026-05-08 21:21 11.60395 -80.85710 19749 ft 351 kts 322°
2026-05-08 21:21 11.62164 -80.87234 19445 ft 350 kts 322°
2026-05-08 21:21 11.63912 -80.88743 19142 ft 347 kts 322°
2026-05-08 21:21 11.65701 -80.90289 18840 ft 344 kts 321°
2026-05-08 21:22 11.67323 -80.91948 18530 ft 343 kts 313°
2026-05-08 21:22 11.68771 -80.93730 18250 ft 343 kts 310°
2026-05-08 21:22 11.70163 -80.95578 17922 ft 341 kts 309°
2026-05-08 21:22 11.71502 -80.97435 17572 ft 340 kts 308°
2026-05-08 21:23 11.72818 -80.99318 17240 ft 339 kts 307°
2026-05-08 21:23 11.74108 -81.01200 16933 ft 337 kts 307°
2026-05-08 21:23 11.75379 -81.03083 16624 ft 337 kts 307°
2026-05-08 21:23 11.76647 -81.04980 16319 ft 336 kts 306°
2026-05-08 21:24 11.77902 -81.06872 16017 ft 335 kts 306°
2026-05-08 21:24 11.79147 -81.08761 15716 ft 334 kts 306°
2026-05-08 21:24 11.80378 -81.10639 15424 ft 332 kts 306°
2026-05-08 21:24 11.81549 -81.12429 15145 ft 332 kts 306°
2026-05-08 21:25 11.82790 -81.14329 14848 ft 331 kts 306°
2026-05-08 21:25 11.84011 -81.16203 14563 ft 329 kts 306°
2026-05-08 21:25 11.85220 -81.18061 14282 ft 327 kts 306°
2026-05-08 21:25 11.86422 -81.19908 14006 ft 327 kts 306°
2026-05-08 21:26 11.87626 -81.21763 13735 ft 326 kts 306°
2026-05-08 21:26 11.88827 -81.23612 13416 ft 325 kts 306°
2026-05-08 21:26 11.90015 -81.25441 13111 ft 323 kts 306°
2026-05-08 21:26 11.91199 -81.27266 12822 ft 321 kts 306°
2026-05-08 21:27 11.92381 -81.29088 12534 ft 321 kts 306°
2026-05-08 21:27 11.93555 -81.30899 12257 ft 320 kts 305°
2026-05-08 21:27 11.94692 -81.32651 11984 ft 318 kts 305°
2026-05-08 21:27 11.95899 -81.34513 11708 ft 317 kts 305°
2026-05-08 21:28 11.97038 -81.36273 11430 ft 316 kts 305°
2026-05-08 21:28 11.98216 -81.38091 11155 ft 315 kts 306°
2026-05-08 21:28 11.99343 -81.39831 10879 ft 314 kts 305°
2026-05-08 21:28 12.00504 -81.41621 10622 ft 313 kts 305°
2026-05-08 21:29 12.01652 -81.43393 10363 ft 312 kts 305°
2026-05-08 21:29 12.02784 -81.45143 10098 ft 311 kts 305°
2026-05-08 21:29 12.03909 -81.46880 9840 ft 310 kts 305°
2026-05-08 21:29 12.05008 -81.48578 9585 ft 309 kts 305°
2026-05-08 21:30 12.06172 -81.50379 9313 ft 305 kts 305°
2026-05-08 21:30 12.07257 -81.52062 9053 ft 296 kts 305°
2026-05-08 21:30 12.08356 -81.53683 8793 ft 286 kts 311°
2026-05-08 21:30 12.09580 -81.55127 8579 ft 275 kts 316°
2026-05-08 21:31 12.10814 -81.56420 8353 ft 267 kts 318°
2026-05-08 21:31 12.12085 -81.57664 8125 ft 262 kts 320°
2026-05-08 21:31 12.13335 -81.58828 7931 ft 262 kts 321°
2026-05-08 21:31 12.14662 -81.60011 7719 ft 262 kts 322°
2026-05-08 21:32 12.15972 -81.61148 7518 ft 260 kts 323°
2026-05-08 21:32 12.17300 -81.62282 7317 ft 260 kts 323°
2026-05-08 21:32 12.18593 -81.63368 7122 ft 259 kts 323°
2026-05-08 21:32 12.19964 -81.64510 6918 ft 257 kts 324°
2026-05-08 21:33 12.21205 -81.65539 6818 ft 255 kts 324°
2026-05-08 21:33 12.22516 -81.66621 6623 ft 257 kts 324°
2026-05-08 21:33 12.23811 -81.67690 6452 ft 254 kts 324°
2026-05-08 21:33 12.25143 -81.68785 6253 ft 256 kts 324°
2026-05-08 21:34 12.26462 -81.69869 6045 ft 254 kts 324°
2026-05-08 21:34 12.27779 -81.70950 5825 ft 251 kts 324°
2026-05-08 21:34 12.29076 -81.72017 5623 ft 252 kts 324°
2026-05-08 21:34 12.29916 -81.72709 5476 ft 251 kts 324°
2026-05-08 21:35 12.31210 -81.73777 5273 ft 251 kts 324°
2026-05-08 21:35 12.32528 -81.74866 5086 ft 252 kts 324°
2026-05-08 21:35 12.33788 -81.75906 4890 ft 249 kts 324°
2026-05-08 21:35 12.34532 -81.76519 4796 ft 250 kts 324°
2026-05-08 21:36 12.35815 -81.77575 4642 ft 246 kts 324°
2026-05-08 21:36 12.37071 -81.78611 4538 ft 231 kts 324°
2026-05-08 21:36 12.38228 -81.79571 4357 ft 220 kts 324°
2026-05-08 21:36 12.39342 -81.80490 4130 ft 213 kts 326°
2026-05-08 21:37 12.40506 -81.81367 3648 ft 217 kts 330°
2026-05-08 21:37 12.41694 -81.82167 3313 ft 212 kts 332°
2026-05-08 21:37 12.42903 -81.82933 3064 ft 208 kts 333°
2026-05-08 21:37 12.44064 -81.83643 2990 ft 193 kts 334°
2026-05-08 21:38 12.45166 -81.84302 2994 ft 194 kts 334°
2026-05-08 21:38 12.46244 -81.84934 2995 ft 183 kts 334°
2026-05-08 21:38 12.47291 -81.85556 3008 ft 171 kts 335°
2026-05-08 21:38 12.48308 -81.86152 3023 ft 167 kts 335°
2026-05-08 21:39 12.49374 -81.86421 3017 ft 156 kts 17°
2026-05-08 21:39 12.50213 -81.85802 3029 ft 148 kts 63°
2026-05-08 21:39 12.50660 -81.84854 2948 ft 152 kts 66°
2026-05-08 21:39 12.51113 -81.83872 2612 ft 152 kts 65°
2026-05-08 21:40 12.51582 -81.82937 2300 ft 145 kts 62°
2026-05-08 21:40 12.52077 -81.82061 1963 ft 142 kts 61°
2026-05-08 21:40 12.52584 -81.81192 1649 ft 144 kts 62°
2026-05-08 21:41 12.53523 -81.79553 1420 ft 141 kts 62°
2026-05-08 21:41 12.54033 -81.78678 1303 ft 144 kts 62°
2026-05-08 21:41 12.54521 -81.77808 1170 ft 139 kts 61°
2026-05-08 21:41 12.55024 -81.76955 1067 ft 142 kts 61°
2026-05-08 21:42 12.55526 -81.76084 994 ft 142 kts 61°
2026-05-08 21:42 12.56016 -81.75227 921 ft 137 kts 61°
2026-05-08 21:42 12.56491 -81.74389 805 ft 139 kts 61°
2026-05-08 21:42 12.56992 -81.73490 467 ft 144 kts 60°
2026-05-08 21:43 12.57510 -81.72622 212 ft 141 kts 60°
2026-05-08 21:43 12.57992 -81.71765 53 ft 139 kts 59°
2026-05-08 21:43 12.58443 -81.70978 32 ft 114 kts 59°
2026-05-08 21:43 12.58701 -81.70529 20 ft 28 kts 59°
2026-05-08 21:44 12.58731 -81.70447 19 ft 9 kts 90°
2026-05-08 21:44 12.58714 -81.70389 17 ft 9 kts 110°
2026-05-08 21:44 12.58710 -81.70344 16 ft 5 kts 77°
2026-05-08 21:44 12.58719 -81.70323 16 ft 2 kts 67°
2026-05-08 21:45 12.58721 -81.70316 16 ft 1 kts 73°
2026-05-08 21:45 12.58722 -81.70306 17 ft 2 kts 81°
2026-05-08 21:45 12.58718 -81.70295 16 ft 1 kts 110°
2026-05-08 21:45 12.58713 -81.70292 16 ft 1 kts 132°
2026-05-08 21:46 12.58698 -81.70286 16 ft 3 kts 156°
2026-05-08 21:46 12.58694 -81.70284 16 ft 0 kts 151°
2026-05-08 21:46 12.58690 -81.70281 16 ft 1 kts 149°
2026-05-08 21:46 12.58686 -81.70278 16 ft 1 kts 149°
2026-05-08 21:47 12.58678 -81.70274 16 ft 2 kts 149°
2026-05-08 21:47 12.58673 -81.70271 16 ft 0 kts 150°
2026-05-08 21:47 12.58671 -81.70269 16 ft 1 kts 150°
2026-05-08 21:47 12.58670 -81.70269 16 ft 0 kts 150°
2026-05-08 22:08 0.00041 0.01397 9 ft 0 kts 360°
2026-05-08 22:11 12.58670 -81.70269 -104 ft 0 kts 150°